Weather History for Erie, PA

Change the Weather History Date:

Tuesday, November 6, 2012

  Actual Average Record
Temperature  
Mean Temperature 35 °F 47 °F  
Max Temperature 41 °F 54 °F 74 °F (1948)
Min Temperature 28 °F 40 °F 23 °F (1951)
Degree Days  
Heating Degree Days 30 18  
Month to date heating degree days 155 105  
Since 1 July heating degree days 625 608  
Cooling Degree Days 0 0  
Month to date cooling degree days 0 0  
Year to date cooling degree days 899 638  
Moisture  
Dew Point 24 °F    
Average Humidity 64    
Maximum Humidity 78    
Minimum Humidity 50    
Precipitation  
Precipitation 0.00 in 0.13 in 1.15 in (2007)
Month to date precipitation 0.54 0.78  
Year to date precipitation 33.91 35.27  
Snow  
Snow 0.00 in 0.10 in - ()
Month to date snowfall T 0.8  
Since 1 July snowfall T 1.0  
Since 1 September snowfall T 1.0  
Snow Depth 0.00 in    
Sea Level Pressure  
Sea Level Pressure 30.10 in    
Wind  
Wind Speed 8 mph (ESE)    
Max Wind Speed 16 mph    
Max Gust Speed 21 mph    
Visibility 10 miles    
Events      
T = Trace of Precipitation, MM = Missing Value Source: NWS Daily Summary

Daily Weather History Graph

Daily Weather History Graph

Search for Another Location

Airport:

Trip Planner

Search our weather history database for the weather conditions in past years. The results will help you decide how hot, cold, wet, or windy it might be!

Date:

Astronomy

Nov. 06, 2012 Rise Set
Actual Time 7:00 AM EST 5:07 PM EST
Civil Twilight 6:30 AM EST 5:37 PM EST
Nautical Twilight 5:57 AM EST 6:10 PM EST
Astronomical Twilight 5:24 AM EST 6:43 PM EST
Moon 11:46 PM EST (11/6) 12:50 PM EST (11/6)
Length of Visible Light 11h 06m
Length of Day
10h 07m
Waning Gibbous, 53% of the Moon is Illuminated
Nov 6
Waning Gibbous
Nov 6
Last Quarter
Nov 13
New
Nov 20
First Quarter
Nov 28
Full

Hourly Weather History & Observations

Time (EST) Temp. Windchill Dew Point Humidity Pressure Visibility Wind Dir Wind Speed Gust Speed Precip Events Conditions
12:51 AM 35.1 °F - 25.0 °F 67% 30.18 in 10.0 mi Calm Calm - N/A   Overcast
1:51 AM 35.1 °F 31.0 °F 23.0 °F 61% 30.18 in 10.0 mi SE 4.6 mph - N/A   Overcast
2:51 AM 35.1 °F 30.1 °F 23.0 °F 61% 30.17 in 10.0 mi SSE 5.8 mph - N/A   Overcast
3:51 AM 35.1 °F 30.1 °F 23.0 °F 61% 30.16 in 10.0 mi SSE 5.8 mph - N/A   Overcast
4:51 AM 35.1 °F 28.6 °F 23.0 °F 61% 30.15 in 10.0 mi SSE 8.1 mph - N/A   Overcast
5:51 AM 33.8 °F 27.7 °F 23.0 °F 65% 30.12 in 10.0 mi SSE 6.9 mph - N/A   Overcast
6:51 AM 34.0 °F 26.6 °F 21.9 °F 61% 30.14 in 10.0 mi SSE 9.2 mph - N/A   Overcast
7:51 AM 34.0 °F 26.6 °F 21.9 °F 61% 30.16 in 10.0 mi SSE 9.2 mph - N/A   Overcast
8:51 AM 34.0 °F 27.2 °F 23.0 °F 64% 30.16 in 10.0 mi SSE 8.1 mph - N/A   Overcast
9:51 AM 35.1 °F 28.6 °F 21.9 °F 59% 30.16 in 10.0 mi SSE 8.1 mph - N/A   Overcast
10:51 AM 36.0 °F 29.6 °F 23.0 °F 59% 30.15 in 10.0 mi SE 8.1 mph - N/A   Overcast
11:51 AM 37.9 °F 35.5 °F 21.9 °F 53% 30.13 in 10.0 mi NE 3.5 mph - N/A   Mostly Cloudy
12:51 PM 39.9 °F 33.9 °F 23.0 °F 51% 30.10 in 10.0 mi North 9.2 mph - N/A   Clear
1:51 PM 41.0 °F 35.2 °F 25.0 °F 53% 30.08 in 10.0 mi North 9.2 mph - N/A   Clear
2:51 PM 39.9 °F 31.8 °F 26.1 °F 58% 30.05 in 10.0 mi NNE 15.0 mph - N/A   Clear
3:51 PM 39.9 °F 31.8 °F 27.0 °F 60% 30.06 in 10.0 mi NE 15.0 mph - N/A   Clear
4:51 PM 37.4 °F 29.3 °F 26.6 °F 65% 30.02 in 10.0 mi NE 12.7 mph - N/A   Clear
5:51 PM 37.0 °F 31.0 °F 27.0 °F 67% 30.04 in 10.0 mi ENE 8.1 mph - N/A   Clear
6:51 PM 33.1 °F 26.9 °F 26.1 °F 75% 30.04 in 10.0 mi ENE 6.9 mph - N/A   Clear
7:51 PM 33.1 °F 27.7 °F 25.0 °F 72% 30.04 in 10.0 mi ENE 5.8 mph - N/A   Clear
8:51 PM 32.0 °F - 24.1 °F 73% 30.04 in 10.0 mi Calm Calm - N/A   Clear
9:51 PM 30.0 °F 26.5 °F 24.1 °F 79% 30.03 in 10.0 mi SSE 3.5 mph - N/A   Clear
10:51 PM 34.0 °F 27.2 °F 24.1 °F 67% 30.01 in 10.0 mi SE 8.1 mph - N/A   Clear
11:51 PM 35.1 °F 27.9 °F 23.0 °F 61% 30.01 in 10.0 mi SE 9.2 mph - N/A   Clear